Location: Home AU
(51.1382°N, 13.5726°E)
Time: 02:49:48
(UTC+01:00)

ISS - Pass Details

Date: 10 January 2018
Orbit: 402 x 407 km, 51.6° (Epoch: 23 January)

Event Time Altitude Azimuth Distance (km) Brightness Sun altitude
Exits shadow 04:58:09 18° 92° (E) 1,090 -0.9 -28.6°
Drops below altitude 10° 04:59:05 10° 93° (E) 1,468 0.0 -28.4°
Sets 05:01:11 0° 94° (E) 2,329 1.3 -28.1°
